GW5240 Weather Reports


time (UTC)temp
C
wind
direction
speed
KPH
gust
KPH
rain 1hr
cm
rain 24hr
cm
rain mn
cm
humidity
%
barometer
mb
20260506190719 6 18 4.8 8.0 0.00 0.00 0.00 49 1016.7
20260506190216 6 167 0.0 0.0 0.00 0.00 0.00 49 1016.5
20260506185713 6 168 4.8 4.8 0.00 0.00 0.00 48 1016.5
20260506185209 6 232 1.6 3.2 0.00 0.00 0.00 48 1016.5
20260506184707 7 330 8.0 14.5 0.00 0.00 0.00 48 1016.6
20260506184204 7 185 0.0 0.0 0.00 0.00 0.00 48 1016.5
20260506183701 6 48 6.4 8.0 0.00 0.00 0.00 48 1016.5
20260506183156 6 134 1.6 3.2 0.00 0.00 0.00 50 1016.8
20260506182654 6 139 0.0 3.2 0.00 0.00 0.00 50 1016.7
20260506182152 6 312 4.8 8.0 0.00 0.00 0.00 48 1016.6
20260506181649 6 269 8.0 11.3 0.00 0.00 0.00 48 1016.7
20260506181146 6 341 8.0 11.3 0.00 0.00 0.00 48 1016.9
20260506180643 6 73 4.8 8.0 0.00 0.00 0.00 48 1016.5
20260506180139 6 159 3.2 3.2 0.00 0.00 0.00 50 1016.7
20260506175636 6 183 3.2 3.2 0.00 0.00 0.00 50 1016.7
20260506175132 6 247 3.2 4.8 0.00 0.00 0.00 49 1016.9
20260506174631 6 296 8.0 11.3 0.00 0.00 0.00 49 1016.9
20260506174127 6 205 3.2 3.2 0.00 0.00 0.00 50 1016.8
20260506173625 6 31 6.4 8.0 0.00 0.00 0.00 50 1016.9
20260506173121 6 337 3.2 4.8 0.00 0.00 0.00 49 1017.1
20260506172619 6 168 3.2 4.8 0.00 0.00 0.00 49 1016.9
20260506172115 6 39 3.2 4.8 0.00 0.00 0.00 51 1016.9
20260506171613 6 162 4.8 8.0 0.00 0.00 0.00 49 1017.1
20260506171111 6 32 3.2 4.8 0.00 0.00 0.00 49 1017.1
20260506170608 5 258 1.6 3.2 0.00 0.00 0.00 51 1017.3
20260506170105 5 248 4.8 8.0 0.00 0.00 0.00 51 1017.2
20260506165603 6 203 4.8 8.0 0.00 0.00 0.00 49 1017.3
20260506165059 5 183 1.6 3.2 0.00 0.00 0.00 51 1017.4
20260506164556 5 142 1.6 3.2 0.00 0.00 0.00 52 1017.3
20260506164053 5 14 4.8 8.0 0.00 0.00 0.00 50 1017.2
20260506163549 5 101 6.4 8.0 0.00 0.00 0.00 50 1017.3
20260506163046 5 201 3.2 3.2 0.00 0.00 0.00 51 1017.2
20260506162542 5 352 6.4 14.5 0.00 0.00 0.00 50 1017.2
20260506162039 5 14 8.0 16.1 0.00 0.00 0.00 50 1017.2
20260506161536 5 322 4.8 11.3 0.00 0.00 0.00 51 1017.2
20260506161033 5 347 9.7 16.1 0.00 0.00 0.00 50 1017.2
20260506160531 5 283 6.4 11.3 0.00 0.00 0.00 49 1017.3
20260506160028 5 59 3.2 3.2 0.00 0.00 0.00 50 1017.1
20260506155526 5 129 11.3 19.3 0.00 0.00 0.00 49 1017.1
20260506153657 6 82 12.9 16.1 0.00 0.00 0.00 48 1017.1
20260506153154 6 83 9.7 22.5 0.00 0.00 0.00 50 1016.8
20260506152651 6 305 4.8 11.3 0.00 0.00 0.00 49 1016.9
20260506152149 6 17 9.7 11.3 0.00 0.00 0.00 49 1016.9
20260506151648 6 270 3.2 3.2 0.00 0.00 0.00 50 1017.2
20260506151144 5 193 1.6 3.2 0.00 0.00 0.00 52 1017.1
20260506150641 5 229 6.4 11.3 0.00 0.00 0.00 51 1016.9
20260506150138 5 130 11.3 14.5 0.00 0.00 0.00 50 1017.3
20260506145635 5 30 6.4 11.3 0.00 0.00 0.00 51 1017.1
20260506145131 5 225 8.0 11.3 0.00 0.00 0.00 53 1017.1
20260506144629 4 111 0.0 3.2 0.00 0.00 0.00 54 1017.1
20260506144125 4 314 11.3 16.1 0.00 0.00 0.00 52 1017.2
20260506143623 4 337 8.0 16.1 0.00 0.00 0.00 52 1017.2
20260506143121 4 182 1.6 3.2 0.00 0.00 0.00 52 1017.2
20260506142619 4 346 9.7 19.3 0.00 0.00 0.00 52 1017.3
20260506142117 4 181 1.6 3.2 0.00 0.00 0.00 53 1017.1
20260506141614 4 303 8.0 14.5 0.00 0.00 0.00 53 1017.2
20260506141112 5 308 11.3 16.1 0.00 0.00 0.00 51 1017.1
20260506140610 4 179 1.6 3.2 0.00 0.00 0.00 53 1017.1
20260506140107 4 5 3.2 4.8 0.00 0.00 0.00 54 1017.2
20260506135603 4 262 3.2 3.2 0.00 0.00 0.00 54 1016.9
20260506135100 4 341 3.2 4.8 0.00 0.00 0.00 53 1016.8
20260506134556 4 274 4.8 4.8 0.00 0.00 0.00 54 1016.8
20260506134052 4 186 4.8 4.8 0.00 0.00 0.00 54 1016.8
20260506133549 4 176 1.6 3.2 0.00 0.00 0.00 54 1016.9
20260506133046 4 181 0.0 0.0 0.00 0.00 0.00 54 1016.7
20260506132544 4 259 3.2 4.8 0.00 0.00 0.00 54 1016.6
20260506132041 4 188 0.0 3.2 0.00 0.00 0.00 55 1016.6
20260506131538 4 289 3.2 3.2 0.00 0.00 0.00 55 1016.6
20260506131034 3 181 3.2 3.2 0.00 0.00 0.00 56 1016.5
20260506130531 3 301 4.8 4.8 0.00 0.00 0.00 56 1016.8
20260506130029 3 178 1.6 3.2 0.00 0.00 0.00 57 1016.4
20260506125527 3 48 4.8 4.8 0.00 0.00 0.00 58 1016.3
20260506125024 3 126 3.2 4.8 0.00 0.00 0.00 58 1016.4
20260506124522 3 318 6.4 8.0 0.00 0.00 0.00 59 1016.2
20260506124020 2 158 0.0 0.0 0.00 0.00 0.00 61 1016.2
20260506123517 2 18 4.8 8.0 0.00 0.00 0.00 61 1016.1
20260506123015 2 315 4.8 4.8 0.00 0.00 0.00 61 1016.2
20260506122512 2 337 4.8 8.0 0.00 0.00 0.00 62 1016.0
20260506122010 2 145 0.0 0.0 0.00 0.00 0.00 63 1016.1
20260506121507 1 179 1.6 3.2 0.00 0.00 0.00 64 1015.9
20260506121003 1 154 3.2 4.8 0.00 0.00 0.00 65 1015.8
20260506120501 1 168 1.6 3.2 0.00 0.00 0.00 65 1015.7
20260506115958 1 221 0.0 3.2 0.00 0.00 0.00 66 1015.7
20260506115456 1 238 3.2 4.8 0.00 0.00 0.00 67 1015.5
20260506114954 1 243 3.2 4.8 0.00 0.00 0.00 68 1015.5
20260506114451 1 1 1.6 3.2 0.00 0.00 0.00 69 1015.4
20260506113950 0 339 4.8 8.0 0.00 0.00 0.00 70 1015.4
20260506113447 0 269 1.6 3.2 0.00 0.00 0.00 70 1015.4
20260506112943 0 162 0.0 3.2 0.00 0.00 0.00 71 1015.4
20260506112441 0 205 1.6 3.2 0.00 0.00 0.00 70 1015.2
20260506111938 0 228 3.2 3.2 0.00 0.00 0.00 71 1015.1
20260506111437 0 186 0.0 0.0 0.00 0.00 0.00 72 1015.2
20260506110933 0 188 0.0 0.0 0.00 0.00 0.00 71 1015.4
20260506110431 0 172 0.0 0.0 0.00 0.00 0.00 71 1015.6
20260506105927 0 167 0.0 0.0 0.00 0.00 0.00 71 1015.4
20260506105424 0 180 0.0 0.0 0.00 0.00 0.00 73 1015.4
20260506104921 0 162 0.0 3.2 0.00 0.00 0.00 75 1015.6
20260506104419 -1 170 0.0 0.0 0.00 0.00 0.00 75 1015.4
20260506103917 -1 171 0.0 0.0 0.00 0.00 0.00 75 1015.5
20260506103414 -1 167 0.0 0.0 0.00 0.00 0.00 74 1015.5
20260506102911 -1 173 0.0 0.0 0.00 0.00 0.00 74 1015.3
20260506102409 -1 173 0.0 0.0 0.00 0.00 0.00 73 1015.3
20260506101906 -1 173 0.0 0.0 0.00 0.00 0.00 74 1015.0
20260506101402 -1 173 0.0 0.0 0.00 0.00 0.00 75 1015.0
20260506100859 -1 172 0.0 0.0 0.00 0.00 0.00 74 1014.8
20260506100358 -1 170 0.0 0.0 0.00 0.00 0.00 74 1014.9
20260506095856 -1 170 0.0 0.0 0.00 0.00 0.00 74 1015.0
20260506095354 -1 168 0.0 0.0 0.00 0.00 0.00 74 1015.2
20260506094850 -1 168 0.0 0.0 0.00 0.00 0.00 74 1014.9
20260506094349 -1 176 0.0 0.0 0.00 0.00 0.00 75 1014.9
20260506093846 -1 175 0.0 0.0 0.00 0.00 0.00 75 1014.7
20260506093343 -1 177 0.0 0.0 0.00 0.00 0.00 74 1014.9
20260506092841 -1 177 0.0 0.0 0.00 0.00 0.00 74 1014.9
20260506092339 -1 171 0.0 0.0 0.00 0.00 0.00 74 1015.0
20260506091835 -1 172 0.0 0.0 0.00 0.00 0.00 74 1014.9
20260506091333 -1 172 0.0 0.0 0.00 0.00 0.00 75 1015.1
20260506090830 -1 172 0.0 0.0 0.00 0.00 0.00 75 1014.9
20260506090328 -1 172 0.0 0.0 0.00 0.00 0.00 75 1015.0
20260506085824 -1 172 0.0 0.0 0.00 0.00 0.00 74 1014.9
20260506085320 -1 172 0.0 0.0 0.00 0.00 0.00 73 1014.7
20260506084817 -1 172 0.0 0.0 0.00 0.00 0.00 73 1014.6
20260506084314 -1 172 0.0 0.0 0.00 0.00 0.00 71 1014.7
20260506083810 0 172 0.0 0.0 0.00 0.00 0.00 70 1014.6
20260506083308 0 172 0.0 0.0 0.00 0.00 0.00 70 1014.6
20260506082806 0 172 0.0 0.0 0.00 0.00 0.00 70 1014.6
20260506082304 0 172 0.0 0.0 0.00 0.00 0.00 70 1014.4
20260506081758 0 172 0.0 0.0 0.00 0.00 0.00 69 1014.6
20260506081256 0 172 0.0 0.0 0.00 0.00 0.00 68 1014.7
20260506080754 0 172 0.0 0.0 0.00 0.00 0.00 68 1014.8
20260506080250 0 172 0.0 0.0 0.00 0.00 0.00 68 1014.8
20260506073234 1 203 0.0 3.2 0.00 0.00 0.00 63 1014.5
20260506072731 1 177 0.0 0.0 0.00 0.00 0.00 63 1014.3
20260506072228 1 177 0.0 0.0 0.00 0.00 0.00 62 1014.2
20260506071726 1 180 0.0 3.2 0.00 0.00 0.00 62 1014.3
20260506071224 1 186 0.0 0.0 0.00 0.00 0.00 61 1014.2
20260506070720 2 180 0.0 0.0 0.00 0.00 0.00 61 1014.5
20260506070217 2 176 0.0 0.0 0.00 0.00 0.00 60 1014.5
20260506062154 2 181 0.0 0.0 0.00 0.00 0.00 57 1014.2
20260506061650 2 144 1.6 3.2 0.00 0.00 0.00 57 1014.4
20260506061148 2 181 0.0 3.2 0.00 0.00 0.00 57 1014.4
20260506060646 3 169 0.0 0.0 0.00 0.00 0.00 56 1014.4
20260506060143 3 180 3.2 4.8 0.00 0.00 0.00 55 1014.3
20260506051115 3 164 1.6 3.2 0.00 0.00 0.00 55 1014.0
20260506050613 3 198 0.0 3.2 0.00 0.00 0.00 54 1013.9
20260506050110 3 341 1.6 3.2 0.00 0.00 0.00 55 1013.7
20260506045103 3 282 0.0 3.2 0.00 0.00 0.00 54 1013.8
20260506044602 4 181 0.0 0.0 0.00 0.00 0.00 54 1013.7
20260506044058 4 238 1.6 3.2 0.00 0.00 0.00 54 1013.8
20260506043555 4 117 3.2 3.2 0.00 0.00 0.00 53 1013.7
20260506043053 4 175 0.0 0.0 0.00 0.00 0.00 54 1013.5
20260506042552 4 179 3.2 4.8 0.00 0.00 0.00 54 1013.6
20260506042049 4 183 1.6 3.2 0.00 0.00 0.00 53 1013.6
20260506041548 4 214 0.0 3.2 0.00 0.00 0.00 54 1013.6
20260506041044 5 273 3.2 4.8 0.00 0.00 0.00 53 1013.7
20260506040542 5 175 0.0 3.2 0.00 0.00 0.00 51 1013.6
20260506040038 5 327 4.8 4.8 0.00 0.00 0.00 51 1013.7
20260506035535 5 178 3.2 4.8 0.00 0.00 0.00 51 1013.8
20260506035032 5 307 6.4 8.0 0.00 0.00 0.00 51 1013.7
20260506034529 5 160 1.6 3.2 0.00 0.00 0.00 51 1013.4
20260506034026 5 160 3.2 3.2 0.00 0.00 0.00 50 1013.7
20260506033523 5 156 0.0 3.2 0.00 0.00 0.00 51 1013.4
20260506033021 5 25 3.2 4.8 0.00 0.00 0.00 50 1013.6
20260506032518 5 180 0.0 0.0 0.00 0.00 0.00 50 1013.4
20260506032014 6 143 6.4 8.0 0.00 0.00 0.00 50 1013.3
20260506031512 6 298 3.2 4.8 0.00 0.00 0.00 50 1013.4
20260506031009 6 168 3.2 4.8 0.00 0.00 0.00 50 1013.5
20260506030507 6 244 3.2 4.8 0.00 0.00 0.00 50 1013.5
20260506030004 6 134 0.0 3.2 0.00 0.00 0.00 50 1013.2
20260506025500 6 15 3.2 4.8 0.00 0.00 0.00 50 1013.2
20260506024957 6 347 6.4 11.3 0.00 0.00 0.00 50 1012.9
20260506024454 6 173 0.0 0.0 0.00 0.00 0.00 50 1012.8
20260506023949 6 205 1.6 3.2 0.00 0.00 0.00 49 1012.7
20260506023447 6 151 1.6 3.2 0.00 0.00 0.00 49 1012.7
20260506022943 6 194 1.6 3.2 0.00 0.00 0.00 48 1012.4
20260506022441 6 211 0.0 3.2 0.00 0.00 0.00 48 1012.4
20260506021939 6 210 0.0 0.0 0.00 0.00 0.00 47 1012.5
20260506021436 6 192 4.8 8.0 0.00 0.00 0.00 46 1012.4
20260506020933 6 234 3.2 4.8 0.00 0.00 0.00 46 1012.2
20260506020431 7 138 0.0 0.0 0.00 0.00 0.00 46 1012.2
20260506015927 7 191 3.2 4.8 0.00 0.00 0.00 45 1012.1
20260506015425 7 273 4.8 4.8 0.00 0.00 0.00 45 1012.0
20260506014922 7 280 4.8 4.8 0.00 0.00 0.00 45 1012.0
20260506014419 7 264 3.2 3.2 0.00 0.00 0.00 44 1012.1
20260506013915 7 274 8.0 11.3 0.00 0.00 0.00 45 1012.1
20260506013414 7 264 1.6 3.2 0.00 0.00 0.00 44 1011.7
20260506012909 7 347 4.8 8.0 0.00 0.00 0.00 44 1011.7
20260506012406 7 87 6.4 8.0 0.00 0.00 0.00 44 1011.6
20260506011903 7 184 0.0 3.2 0.00 0.00 0.00 44 1011.7
20260506011400 8 185 3.2 3.2 0.00 0.00 0.00 43 1011.6
20260506010857 8 235 9.7 14.5 0.00 0.00 0.00 43 1011.5
20260506010355 8 292 9.7 16.1 0.00 0.00 0.00 43 1011.4
20260506005852 8 300 3.2 4.8 0.00 0.00 0.00 43 1011.5
20260506005349 8 214 3.2 8.0 0.00 0.00 0.00 43 1011.4
20260506004844 8 182 1.6 3.2 0.00 0.00 0.00 42 1011.3
20260506004343 8 166 6.4 8.0 0.00 0.00 0.00 40 1011.4
20260506003839 9 9 9.7 14.5 0.00 0.00 0.00 40 1011.5
20260506003335 9 274 1.6 4.8 0.00 0.00 0.00 40 1011.0
20260506002831 9 301 6.4 8.0 0.00 0.00 0.00 40 1011.2
20260506002328 9 337 4.8 8.0 0.00 0.00 0.00 40 1011.2
20260506001823 9 323 11.3 22.5 0.00 0.00 0.00 39 1011.1
20260506001321 9 13 4.8 4.8 0.00 0.00 0.00 40 1011.0
20260506000818 9 144 6.4 11.3 0.00 0.00 0.00 40 1010.8
20260506000316 9 291 4.8 4.8 0.00 0.00 0.00 39 1010.8
20260505235812 9 173 3.2 4.8 0.00 0.00 0.00 39 1010.8
20260505235310 9 289 8.0 11.3 0.00 0.00 0.00 39 1011.0
20260505234806 9 215 3.2 3.2 0.00 0.00 0.00 40 1010.8
20260505234304 9 7 6.4 8.0 0.00 0.00 0.00 39 1010.9
20260505233801 9 320 4.8 4.8 0.00 0.00 0.00 40 1010.7
20260505233259 9 335 8.0 14.5 0.00 0.00 0.00 39 1010.7
20260505232755 9 359 8.0 8.0 0.00 0.00 0.00 40 1010.8
20260505232253 9 177 0.0 3.2 0.00 0.00 0.00 40 1010.8
20260505231749 9 247 1.6 3.2 0.00 0.00 0.00 41 1010.8
20260505231248 9 272 3.2 8.0 0.00 0.00 0.00 40 1010.9
20260505230746 10 166 3.2 4.8 0.00 0.00 0.00 39 1010.8
20260505230242 10 242 3.2 3.2 0.00 0.00 0.00 39 1010.8
20260505225739 10 359 4.8 4.8 0.00 0.00 0.00 39 1010.9
20260505225236 10 204 4.8 8.0 0.00 0.00 0.00 39 1010.7
20260505224731 11 337 6.4 8.0 0.00 0.00 0.00 36 1010.7
20260505224229 11 349 6.4 11.3 0.00 0.00 0.00 37 1010.7
20260505223727 11 182 8.0 14.5 0.00 0.00 0.00 37 1010.8
20260505223223 11 192 6.4 8.0 0.00 0.00 0.00 39 1010.7
20260505222719 10 217 4.8 4.8 0.00 0.00 0.00 39 1010.7
20260505222215 10 168 6.4 11.3 0.00 0.00 0.00 39 1010.7
20260505221713 10 137 4.8 4.8 0.00 0.00 0.00 39 1010.7
20260505221209 10 322 4.8 8.0 0.00 0.00 0.00 39 1010.8
20260505220706 10 9 6.4 8.0 0.00 0.00 0.00 40 1010.8
20260505220204 10 257 8.0 14.5 0.00 0.00 0.00 39 1010.8
20260505215701 10 37 12.9 16.1 0.00 0.00 0.00 39 1011.0
20260505215159 10 310 6.4 8.0 0.00 0.00 0.00 40 1010.9
20260505214657 10 221 1.6 3.2 0.00 0.00 0.00 39 1010.7
20260505214154 10 57 6.4 8.0 0.00 0.00 0.00 39 1011.0
20260505213651 10 329 16.1 24.1 0.00 0.00 0.00 38 1010.8
20260505213148 10 0 8.0 11.3 0.00 0.00 0.00 38 1010.9
20260505212644 10 217 9.7 11.3 0.00 0.00 0.00 39 1010.7
20260505212142 10 72 4.8 4.8 0.00 0.00 0.00 38 1010.8
20260505211638 10 0 6.4 8.0 0.00 0.00 0.00 38 1010.8
20260505211136 10 172 0.0 3.2 0.00 0.00 0.00 41 1010.7
20260505210632 10 328 3.2 4.8 0.00 0.00 0.00 38 1010.9
20260505210129 10 187 3.2 4.8 0.00 0.00 0.00 38 1010.9
20260505205626 10 198 3.2 3.2 0.00 0.00 0.00 39 1010.9
20260505205125 10 154 3.2 3.2 0.00 0.00 0.00 38 1011.0
20260505204621 10 358 3.2 4.8 0.00 0.00 0.00 40 1011.1
20260505204119 10 322 3.2 4.8 0.00 0.00 0.00 40 1010.9
20260505203615 10 354 8.0 11.3 0.00 0.00 0.00 39 1011.0
20260505203113 10 12 8.0 8.0 0.00 0.00 0.00 39 1011.0
20260505202608 10 356 3.2 11.3 0.00 0.00 0.00 38 1011.0
20260505202104 11 283 11.3 16.1 0.00 0.00 0.00 37 1011.1
20260505201601 10 333 6.4 14.5 0.00 0.00 0.00 38 1011.1
20260505201059 10 220 3.2 4.8 0.00 0.00 0.00 39 1011.2
20260505200557 10 335 4.8 8.0 0.00 0.00 0.00 39 1011.3
20260505200053 11 262 6.4 8.0 0.00 0.00 0.00 38 1011.0
20260505195549 11 250 3.2 4.8 0.00 0.00 0.00 38 1011.1
20260505195047 11 112 3.2 3.2 0.00 0.00 0.00 41 1011.1
20260505194544 10 265 6.4 8.0 0.00 0.00 0.00 39 1011.2
20260505194039 10 158 3.2 4.8 0.00 0.00 0.00 39 1011.0
20260505193537 11 230 8.0 14.5 0.00 0.00 0.00 38 1011.1
20260505193034 11 7 11.3 14.5 0.00 0.00 0.00 37 1010.7
20260505192532 11 194 4.8 8.0 0.00 0.00 0.00 37 1011.0
20260505192030 12 188 3.2 4.8 0.00 0.00 0.00 37 1011.0
20260505191528 11 40 11.3 16.1 0.00 0.00 0.00 37 1011.1
20260505191026 11 240 4.8 8.0 0.00 0.00 0.00 36 1011.1